Location: Gorze? G�rny
(49.8500°N, 19.5000°E)
Time: 04:09:16
(UTC+00:00)

Cosmos 1707 - Pass Details

Date: 13 May 2021
Orbit: 516 x 528 km, 82.5° (Epoch: 20 June)

Event Time Altitude Azimuth Distance (km) Brightness Sun altitude
Exits shadow 23:37:45 34° 124° (ESE) 864 3.6 -20.3°
Maximum altitude 23:38:34 39° 93° (E) 791 3.6 -20.2°
Drops below altitude 10° 23:42:09 10° 24° (NNE) 1,757 6.6 -20.1°
Sets 23:44:23 0° 17° (NNE) 2,650 8.0 -20.0°
